Weather History for K1A6 - December, 2011

Change the Weather History Date:

Tuesday, December 27, 2011

  Actual Average (KLOZ) Record (KLOZ)
Temperature  
Mean Temperature 45 °F 36 °F  
Max Temperature 51 °F 45 °F 70 °F (2008)
Min Temperature 39 °F 28 °F 4 °F (1966)
Degree Days  
Heating Degree Days 20 29  
Month to date heating degree days 706  
Since 1 July heating degree days 1536  
Cooling Degree Days 0 0  
Month to date cooling degree days 0  
Moisture  
Dew Point 40 °F    
Average Humidity 89    
Maximum Humidity 100    
Minimum Humidity 71    
Precipitation  
Precipitation 0.33 in 0.13 in 1.11 in (2011)
Month to date precipitation 3.76  
Sea Level Pressure  
Sea Level Pressure 29.75 in    
Wind  
Wind Speed 4 mph (WSW)    
Max Wind Speed 15 mph    
Max Gust Speed 26 mph    
Visibility 8 miles    
Events Rain    
T = Trace of Precipitation, MM = Missing Value Source: NWS Daily Summary

Daily Weather History Graph

Daily Weather History Graph

Search for Another Location

Airport or City:

Trip Planner

Search our weather history database for the weather conditions in past years. The results will help you decide how hot, cold, wet, or windy it might be!

Date:

Astronomy

Dec. 27, 2011 Rise Set
Actual Time 6:45 AM CST 4:26 PM CST
Civil Twilight 6:17 AM CST 4:54 PM CST
Nautical Twilight 5:44 AM CST 5:27 PM CST
Astronomical Twilight 5:13 AM CST 5:58 PM CST
Moon 8:45 AM CST (12/27) 7:53 PM CST (12/27)
Length of Visible Light 10h 37m
Length of Day
9h 40m
Waxing Crescent, 11% of the Moon is Illuminated
Dec 27
Waxing Crescent
Jan 1
First Quarter
Jan 9
Full
Jan 16
Last Quarter
Jan 23
New

Hourly Weather History & Observations

Time (CST) Temp. Windchill Dew Point Humidity Pressure Visibility Wind Dir Wind Speed Gust Speed Precip Events Conditions
12:15 AM 42.8 °F 39.3 °F 39.2 °F 87% 29.95 in 2.5 mi WNW 5.8 mph - 0.04 in Rain Heavy Rain
12:35 AM 42.8 °F 40.1 °F 41.0 °F 93% 29.96 in 10.0 mi WNW 4.6 mph - 0.05 in Rain Light Rain
12:55 AM 42.8 °F - 41.0 °F 93% 29.93 in 10.0 mi Calm Calm - N/A Rain Light Rain
1:15 AM 42.8 °F - 41.0 °F 93% 29.91 in 10.0 mi Calm Calm - N/A   Drizzle
1:35 AM 42.8 °F - 41.0 °F 93% 29.90 in 7.0 mi Calm Calm - N/A Rain Rain
1:55 AM 42.8 °F - 41.0 °F 93% 29.88 in 10.0 mi Calm Calm - N/A Rain Light Rain
2:15 AM 42.8 °F - 41.0 °F 93% 29.87 in 7.0 mi Calm Calm - N/A Rain Rain
2:35 AM 42.8 °F 41.1 °F 41.0 °F 93% 29.85 in 7.0 mi WNW 3.5 mph - N/A Rain Rain
2:55 AM 42.8 °F - 41.0 °F 93% 29.83 in 7.0 mi Calm Calm - N/A Rain Light Rain
3:15 AM 42.8 °F 39.3 °F 39.2 °F 87% 29.83 in 7.0 mi SSE 5.8 mph - 0.01 in Rain Rain
3:35 AM 42.8 °F 40.1 °F 39.2 °F 87% 29.80 in 10.0 mi SSE 4.6 mph - 0.02 in Rain Light Rain
3:55 AM 42.8 °F - 39.2 °F 87% 29.78 in 10.0 mi Calm Calm - N/A Rain Light Rain
4:15 AM 42.8 °F - 39.2 °F 87% 29.76 in 10.0 mi Calm Calm - N/A Rain Rain
4:35 AM 44.6 °F - 39.2 °F 81% 29.76 in 7.0 mi Calm Calm - N/A Rain Rain
4:55 AM 44.6 °F - 41.0 °F 87% 29.75 in 5.0 mi Calm Calm - 0.02 in Rain Rain
5:15 AM 42.8 °F - 42.8 °F 100% 29.76 in 7.0 mi Calm Calm - 0.06 in Rain Rain
5:35 AM 42.8 °F - 41.0 °F 93% 29.75 in 4.0 mi Calm Calm - 0.09 in Rain Rain
5:55 AM 42.8 °F - 41.0 °F 93% 29.73 in 4.0 mi Calm Calm - 0.01 in Rain Rain
6:15 AM 42.8 °F - 41.0 °F 93% 29.71 in 3.0 mi Calm Calm - 0.06 in Rain Rain
6:35 AM 42.8 °F - 41.0 °F 93% 29.70 in 4.0 mi Calm Calm - 0.08 in Rain Rain
6:55 AM 42.8 °F - 41.0 °F 93% 29.69 in 4.0 mi Calm Calm - 0.01 in Rain Rain
7:15 AM 42.8 °F - 42.8 °F 100% 29.67 in 4.0 mi Calm Calm - 0.04 in Rain Rain
7:35 AM 42.8 °F - 42.8 °F 100% 29.64 in 4.0 mi Calm Calm - 0.07 in Rain Rain
8:15 AM 42.8 °F 41.1 °F 42.8 °F 100% 29.62 in 10.0 mi SW 3.5 mph - N/A Rain Rain
8:35 AM 44.6 °F - 42.8 °F 93% 29.61 in 4.0 mi Calm Calm - N/A   Heavy Drizzle
8:55 AM 44.6 °F - 42.8 °F 93% 29.61 in 2.5 mi Calm Calm - N/A Rain Rain
9:15 AM 44.6 °F - 44.6 °F 100% 29.61 in 4.0 mi Calm Calm - 0.03 in Rain Rain
9:35 AM 46.4 °F 41.5 °F 46.4 °F 100% 29.61 in 10.0 mi SSW 10.4 mph 17.3 mph 0.05 in Rain Light Rain
9:55 AM 46.4 °F 41.5 °F 46.4 °F 100% 29.60 in 10.0 mi South 10.4 mph 16.1 mph N/A Rain Light Rain
10:15 AM 48.2 °F - 46.4 °F 93% 29.60 in 10.0 mi South 11.5 mph 18.4 mph N/A Rain Light Rain
10:35 AM 46.4 °F 41.5 °F 44.6 °F 93% 29.61 in 10.0 mi South 10.4 mph 18.4 mph N/A   Overcast
10:55 AM 46.4 °F 44.3 °F 46.4 °F 100% 29.60 in 7.0 mi WSW 4.6 mph - N/A Rain Rain
11:15 AM 50.0 °F - 44.6 °F 82% 29.59 in 10.0 mi SSW 3.5 mph - N/A Rain Light Rain
11:35 AM 51.8 °F - 42.8 °F 71% 29.58 in 10.0 mi WSW 15.0 mph 21.9 mph N/A   Mostly Cloudy
12:15 PM 48.2 °F - 42.8 °F 82% 29.60 in 7.0 mi WSW 11.5 mph 24.2 mph N/A Rain Rain
12:55 PM 46.4 °F 40.7 °F 41.0 °F 81% 29.62 in 7.0 mi West 12.7 mph 26.5 mph N/A Rain Light Rain
1:15 PM 46.4 °F 45.2 °F 39.2 °F 76% 29.62 in 10.0 mi WSW 3.5 mph 21.9 mph N/A Rain Light Rain
1:35 PM 46.4 °F 43.5 °F 39.2 °F 76% 29.64 in 7.0 mi WSW 5.8 mph 19.6 mph N/A Rain Rain
1:55 PM 44.6 °F 39.2 °F 39.2 °F 81% 29.66 in 5.0 mi WSW 10.4 mph 18.4 mph N/A Rain Rain
2:15 PM 44.6 °F 39.7 °F 39.2 °F 81% 29.68 in 10.0 mi WNW 9.2 mph - N/A Rain Rain
2:35 PM 42.8 °F 39.3 °F 39.2 °F 87% 29.70 in 10.0 mi West 5.8 mph - N/A Rain Rain
2:55 PM 42.8 °F 39.3 °F 37.4 °F 81% 29.71 in 7.0 mi West 5.8 mph - N/A Rain Rain
3:15 PM 42.8 °F 38.6 °F 37.4 °F 81% 29.72 in 10.0 mi WSW 6.9 mph 17.3 mph N/A   Light Drizzle
3:35 PM 42.8 °F - 37.4 °F 81% 29.74 in 10.0 mi Calm Calm - N/A Rain Light Rain
3:55 PM 42.8 °F 41.1 °F 37.4 °F 81% 29.75 in 10.0 mi West 3.5 mph - N/A   Light Drizzle
4:15 PM 41.0 °F 38.0 °F 37.4 °F 87% 29.76 in 10.0 mi WSW 4.6 mph - N/A Rain Light Rain
4:35 PM 42.8 °F 40.1 °F 37.4 °F 81% 29.77 in 10.0 mi West 4.6 mph - N/A   Light Drizzle
5:35 PM 41.0 °F 38.0 °F 37.4 °F 87% 29.81 in 5.0 mi West 4.6 mph - N/A   Heavy Drizzle
5:55 PM 39.2 °F 35.9 °F 37.4 °F 93% 29.83 in 7.0 mi West 4.6 mph - N/A Rain Light Rain
6:35 PM 41.0 °F 34.7 °F 37.4 °F 87% 29.86 in 7.0 mi West 10.4 mph 16.1 mph N/A Rain Rain
6:55 PM 39.2 °F 35.9 °F 37.4 °F 93% 29.87 in 10.0 mi WNW 4.6 mph 9.2 mph N/A   Light Drizzle
7:35 PM 39.2 °F 33.0 °F 35.6 °F 87% 29.87 in 10.0 mi West 9.2 mph - N/A Rain Light Rain
7:55 PM 39.2 °F 33.6 °F 35.6 °F 87% 29.87 in 10.0 mi NW 8.1 mph - N/A Rain Light Rain
8:15 PM 39.2 °F 34.2 °F 35.6 °F 87% 29.88 in 10.0 mi WNW 6.9 mph - N/A   Overcast
8:35 PM 39.2 °F 33.0 °F 35.6 °F 87% 29.88 in 10.0 mi West 9.2 mph 16.1 mph N/A   Overcast
8:55 PM 39.2 °F 32.5 °F 35.6 °F 87% 29.89 in 10.0 mi WNW 10.4 mph 20.7 mph N/A Rain Rain
9:15 PM 39.2 °F 32.5 °F 35.6 °F 87% 29.89 in 10.0 mi WNW 10.4 mph 18.4 mph N/A   Overcast
9:35 PM 39.2 °F 31.6 °F 35.6 °F 87% 29.89 in 10.0 mi WNW 12.7 mph 23.0 mph N/A Rain Light Rain
9:55 PM 39.2 °F 33.0 °F 35.6 °F 87% 29.89 in 10.0 mi NW 9.2 mph 19.6 mph N/A   Light Drizzle
10:15 PM 39.2 °F 34.2 °F 35.6 °F 87% 29.90 in 10.0 mi WNW 6.9 mph - N/A   Overcast
10:35 PM 39.2 °F 35.0 °F 35.6 °F 87% 29.90 in 10.0 mi WNW 5.8 mph 17.3 mph N/A   Light Drizzle
10:55 PM 39.2 °F 34.2 °F 35.6 °F 87% 29.90 in 10.0 mi NW 6.9 mph 16.1 mph N/A   Overcast
11:15 PM 39.2 °F 33.6 °F 35.6 °F 87% 29.92 in 10.0 mi WNW 8.1 mph 19.6 mph N/A   Overcast
11:35 PM 39.2 °F 31.2 °F 35.6 °F 87% 29.92 in 10.0 mi WNW 13.8 mph 20.7 mph N/A   Light Drizzle